Tracking 26321 objects as of 27-Nov-2022
HD Live streaming from Space Station
objects crossing your sky now

SXC3-217 (SIREN)

Track SXC3-217 (SIREN) now!
10-day predictions
SXC3-217 (SIREN) is classified as:


NORAD ID: 53384
Int'l Code: 2022-096Q
Perigee: 486.9 km
Apogee: 495.8 km
Inclination: 97.4 °
Period: 94.3 minutes
Semi major axis: 6862 km
RCS: Unknown
Launch date: August 9, 2022
Source: (TBD)
Launch site: TYURATAM MISSILE AND SPACE COMPLEX (TTMTR)

Uplink (MHz):
Downlink (MHz): 437.750
Beacon (MHz):
Mode: 2400bps GMSK USP
Call sign: RS30S
Status: Active

aabbcc
Your satellite tracking list
Your tracking list is empty




NASA's NSSDC Master Catalog

Two Line Element Set (TLE):
1 53384U 22096Q   22331.09129404  .00007745  00000-0  29313-3 0  9996
2 53384  97.4285 231.9198 0006512  66.3070  41.5397 15.27195033 16742
Source of the keplerian elements: AFSPC